Location: Bottenau
(48.5138°N, 8.0462°E)
Time: 04:34:34
(UTC+00:00)

Cosmos 1766 Rocket - Pass Details

Date: 18 April 2021
Orbit: 604 x 633 km, 82.5° (Epoch: 09 May)

Event Time Altitude Azimuth Distance (km) Brightness Sun altitude
Rises 20:56:39 0° 351° (N) 2,873 7.9 -21.7°
Reaches altitude 10° 20:58:53 10° 353° (N) 1,964 6.9 -22.0°
Maximum altitude 21:03:14 78° 80° (E) 626 3.4 -22.4°
Enters shadow 21:03:30 74° 122° (ESE) 636 3.3 -22.4°
